Location: Newark
(54.2500°N, 9.1833°E)
Time: 21:10:00
(UTC+00:00)

A-11 Canister half - Visible Passes

Search period start: 10 December 2019 00:00
Search period end: 20 December 2019 00:00
Orbit: 1515 x 1685 km, 47.2° (Epoch: 10 December)

Date Brightness Start Highest point End Pass type
(mag) Time Alt. Az. Time Alt. Az. Time Alt. Az.
10 Dec 10.1 16:17:37 10° W 16:26:56 47° SSW 16:36:26 10° SE visible
10 Dec 10.9 18:22:55 10° W 18:30:08 23° SW 18:37:26 10° S visible
11 Dec 10.1 15:54:42 10° W 16:04:03 48° SSW 16:13:35 10° SE visible
11 Dec 10.9 17:59:53 10° W 18:07:20 24° SW 18:14:50 10° S visible
12 Dec 10.1 15:31:48 10° W 15:41:10 49° SSW 15:50:44 10° SE visible
12 Dec 10.9 17:36:52 10° W 17:44:30 25° SW 17:52:11 10° S visible
13 Dec 11.0 17:13:53 10° W 17:21:40 27° SW 17:29:33 10° S visible
14 Dec 11.0 16:50:55 10° W 16:58:50 28° SW 17:06:53 10° SSE visible
15 Dec 11.0 16:27:56 10° W 16:36:00 29° SW 16:44:12 10° SSE visible
16 Dec 11.0 16:04:58 10° W 16:13:09 31° SW 16:21:30 10° SSE visible
17 Dec 11.0 15:42:01 10° W 15:50:19 32° SW 15:58:47 10° SSE visible
18 Dec 11.9 17:27:36 10° WSW 17:29:56 11° WSW 17:32:17 10° SW visible
19 Dec 12.3 06:50:06 10° SE 06:50:58 10° ESE 06:51:51 10° ESE visible
19 Dec 11.9 17:03:53 10° WSW 17:07:10 12° SW 17:10:28 10° SW visible
